COSMOS 2527 [GLONASS-M] (43508 NORAD) Tracking and Keplerian Element Data

This shows tracking and keplerian element data for the satellite.

Feedback or suggestion? Click here.




ElementValue
Catalog43508
NameCOSMOS 2527 [GLONASS-M]
Epoch Orbit59
Epoch Day195.68881964
Epoch Year2018
RAAN170.7659
Inclination64.8267
Eccentricity0.0006458
Argument of Perigee230.1865
Mean Anonmoly140.74
Mean Motion2.12997225
Decay Rate4.7E-07
L11 43508U 18053A 18195.68881964 .00000047 00000-0 00000-0 0 9992
L22 43508 64.8267 170.7659 0006458 230.1865 140.7400 2.12997225 597

Live tracking and technical data element details for COSMOS 2527 [GLONASS-M] (NORAD 43508). COSMOS 2527 [GLONASS-M] can be tracked NOW for your location showing map with azimuth and elevation plus other details from your city location.

Track the satellite on the map from your city or location and see movement details for azimuth, elevation, latitude, longitude, range, height, and movement on the map or in text.







IsCatalogInMostPopularTable: catalog: 43508, numindb: 6
Update: records affected: 1



GetName: 43508 COSMOS 2527 [GLONASS-M]

Hit Count: updated at: Thu, 19 Jul 2018 03:58:54 GMT